Change the Weather History Date:

Friday, February 3, 2012

  Actual Average Record
Temperature  
Mean Temperature 56 °F -  
Max Temperature 60 °F 44 °F 64 °F (2008)
Min Temperature 51 °F 28 °F 6 °F (2014)
Degree Days  
Heating Degree Days 10    
Growing Degree Days 6 (Base 50)    
Moisture  
Dew Point 48 °F    
Average Humidity 81    
Maximum Humidity 100    
Minimum Humidity 50    
Precipitation  
Precipitation 0.86 in - - ()
Sea Level Pressure  
Sea Level Pressure 30.00 in    
Wind  
Wind Speed 13 mph (ESE)    
Max Wind Speed 18 mph    
Max Gust Speed 30 mph    
Visibility 9 miles    
Events Rain , Thunderstorm    
Averages and records for this station are not official NWS values.
T = Trace of Precipitation, MM = Missing Value Source: NWS Daily Summary

Daily Weather History Graph

Daily Weather History Graph

Search for Another Location

Airport or City:

Trip Planner

Search our weather history database for the weather conditions in past years. The results will help you decide how hot, cold, wet, or windy it might be!

Date:

Astronomy

Feb. 03, 2012 Rise Set
Actual Time 7:16 AM CST 5:44 PM CST
Civil Twilight 6:49 AM CST 6:11 PM CST
Nautical Twilight 6:18 AM CST 6:42 PM CST
Astronomical Twilight 5:48 AM CST 7:12 PM CST
Moon 1:50 PM CST (2/3) 3:49 AM CST (2/3)
Length of Visible Light 11h 21m
Length of Day
10h 27m
Waxing Gibbous, 82% of the Moon is Illuminated
Feb 3
Waxing Gibbous
Feb 7
Full
Feb 14
Last Quarter
Feb 21
New
Feb 29
First Quarter

Hourly Weather History & Observations

Time (CST) Temp. Dew Point Humidity Pressure Visibility Wind Dir Wind Speed Gust Speed Precip Events Conditions
12:57 AM 52.0 °F 35.1 °F 53% 30.10 in 10.0 mi ESE 15.0 mph - N/A   Clear
1:46 AM 51.8 °F 35.6 °F 54% 30.10 in 10.0 mi East 11.5 mph - N/A   Mostly Cloudy
1:57 AM 51.1 °F 36.0 °F 56% 30.09 in 10.0 mi East 15.0 mph - N/A   Mostly Cloudy
2:14 AM 51.8 °F 35.6 °F 54% 30.10 in 10.0 mi East 13.8 mph - N/A   Scattered Clouds
2:38 AM 51.8 °F 35.6 °F 54% 30.10 in 10.0 mi East 12.7 mph - N/A   Mostly Cloudy
2:57 AM 52.0 °F 35.1 °F 53% 30.09 in 10.0 mi East 13.8 mph - N/A   Overcast
3:57 AM 53.1 °F 35.1 °F 50% 30.07 in 10.0 mi East 15.0 mph - N/A   Overcast
4:33 AM 53.6 °F 35.6 °F 51% 30.08 in 10.0 mi East 15.0 mph - N/A   Mostly Cloudy
4:57 AM 52.0 °F 36.0 °F 54% 30.06 in 10.0 mi ESE 15.0 mph - N/A   Overcast
5:23 AM 51.8 °F 35.6 °F 54% 30.08 in 10.0 mi East 12.7 mph - N/A   Overcast
5:57 AM 54.0 °F 41.0 °F 62% 30.06 in 10.0 mi ESE 15.0 mph - N/A   Overcast
6:57 AM 53.1 °F 45.0 °F 74% 30.08 in 10.0 mi ESE 16.1 mph 21.9 mph N/A   Overcast
7:57 AM 52.0 °F 45.0 °F 77% 30.08 in 10.0 mi ESE 13.8 mph 21.9 mph N/A   Overcast
8:57 AM 52.0 °F 45.0 °F 77% 30.07 in 10.0 mi ESE 15.0 mph - N/A   Overcast
9:57 AM 53.1 °F 46.9 °F 80% 30.08 in 10.0 mi ESE 10.4 mph 16.1 mph N/A   Overcast
10:57 AM 54.0 °F 48.0 °F 80% 30.05 in 10.0 mi ESE 17.3 mph - N/A   Overcast
11:57 AM 57.0 °F 50.0 °F 77% 30.03 in 10.0 mi ESE 11.5 mph - N/A   Overcast
12:02 PM 57.2 °F 50.0 °F 77% 30.04 in 10.0 mi ESE 11.5 mph - N/A   Overcast
12:57 PM 57.9 °F 51.1 °F 78% 30.00 in 10.0 mi SE 15.0 mph - N/A   Overcast
1:27 PM 57.2 °F 51.8 °F 82% 29.98 in 10.0 mi SE 17.3 mph 23.0 mph N/A   Overcast
1:57 PM 59.0 °F 53.1 °F 81% 29.95 in 10.0 mi SE 13.8 mph 24.2 mph N/A   Overcast
2:25 PM 59.0 °F 53.6 °F 82% 29.96 in 10.0 mi SE 12.7 mph - N/A   Overcast
2:57 PM 60.1 °F 54.0 °F 80% 29.95 in 10.0 mi SE 16.1 mph 21.9 mph N/A   Overcast
3:24 PM 60.8 °F 53.6 °F 77% 29.95 in 10.0 mi SSE 13.8 mph 23.0 mph N/A Thunderstorm Overcast
3:46 PM 59.0 °F 53.6 °F 82% 29.96 in 10.0 mi SSE 15.0 mph 29.9 mph 0.01 in Rain , Thunderstorm Light Thunderstorms and Rain
3:57 PM 57.9 °F 54.0 °F 87% 29.92 in 10.0 mi ESE 9.2 mph - 0.05 in Rain , Thunderstorm Light Thunderstorms and Rain
4:06 PM 57.2 °F 53.6 °F 88% 29.92 in 10.0 mi ESE 10.4 mph - 0.00 in Rain Light Rain
4:20 PM 57.2 °F 55.4 °F 94% 29.91 in 10.0 mi ESE 12.7 mph 18.4 mph 0.00 in   Overcast
4:57 PM 57.0 °F 54.0 °F 89% 29.90 in 10.0 mi ESE 15.0 mph 27.6 mph 0.00 in   Overcast
5:57 PM 57.0 °F 55.0 °F 93% 29.93 in 10.0 mi SE 9.2 mph - N/A   Overcast
6:57 PM 55.9 °F 54.0 °F 93% 29.93 in 10.0 mi SE 11.5 mph - 0.03 in Rain Light Rain
7:08 PM 55.4 °F 53.6 °F 94% 29.94 in 7.0 mi SE 8.1 mph - 0.07 in Rain Rain
7:16 PM 55.4 °F 53.6 °F 94% 29.96 in 10.0 mi Variable 5.8 mph - 0.07 in Rain , Thunderstorm Light Rain
7:23 PM 55.4 °F 53.6 °F 94% 29.97 in 10.0 mi WNW 11.5 mph - 0.08 in Rain , Thunderstorm Light Rain
7:31 PM 55.4 °F 53.6 °F 94% 29.97 in 9.0 mi NNW 8.1 mph - 0.14 in Rain Light Rain
7:36 PM 55.4 °F 53.6 °F 94% 29.97 in 5.0 mi Calm Calm - 0.20 in Rain Heavy Rain
7:39 PM 55.4 °F 55.4 °F 100% 29.96 in 5.0 mi North 4.6 mph - 0.21 in Rain Rain
7:57 PM 55.9 °F 55.0 °F 97% 29.97 in 6.0 mi NNW 5.8 mph - 0.37 in Rain Heavy Rain
8:05 PM 55.4 °F 53.6 °F 94% 29.99 in 6.0 mi NNW 10.4 mph - 0.05 in Rain , Thunderstorm Rain
8:21 PM 53.6 °F 53.6 °F 100% 29.97 in 4.0 mi NE 10.4 mph - 0.25 in Rain , Thunderstorm Heavy Thunderstorms and Rain
8:36 PM 53.6 °F 53.6 °F 100% 29.95 in 8.0 mi ENE 6.9 mph - 0.30 in Rain , Thunderstorm Light Thunderstorms and Rain
8:57 PM 54.0 °F 53.1 °F 97% 29.95 in 10.0 mi SE 11.5 mph - 0.35 in Rain , Thunderstorm Light Thunderstorms and Rain
9:15 PM 53.6 °F 53.6 °F 100% 29.93 in 7.0 mi ESE 17.3 mph - 0.04 in Rain Light Rain
9:18 PM 53.6 °F 53.6 °F 100% 29.93 in 8.0 mi ESE 18.4 mph - 0.04 in Rain Light Rain
9:57 PM 52.0 °F 51.1 °F 97% 29.92 in 10.0 mi ESE 15.0 mph - 0.06 in   Overcast
10:46 PM 53.6 °F 51.8 °F 94% 29.95 in 10.0 mi SE 8.1 mph - 0.00 in   Overcast
10:57 PM 53.1 °F 52.0 °F 96% 29.94 in 10.0 mi SE 8.1 mph - 0.00 in   Overcast
11:57 PM 53.1 °F 52.0 °F 96% 29.94 in 10.0 mi ESE 6.9 mph - N/A   Clear